Location: Stagg River
(62.7445°N, 115.7274°W)
Time: 04:05:38
(UTC-06:00)

OTV 5 (USA 277) - Visible Passes

Search period start: 25 April 2019 00:00
Search period end: 05 May 2019 00:00
Orbit: 309 x 326 km, 54.5° (Epoch: 21 April)

Date Brightness Start Highest point End Pass type
(mag) Time Alt. Az. Time Alt. Az. Time Alt. Az.
25 Apr ? 23:01:54 10° S 23:02:48 11° SSE 23:02:56 11° SSE visible
26 Apr ? 23:15:43 10° SSW 23:17:12 14° SSE 23:17:43 13° SSE visible
27 Apr ? 23:29:56 10° SW 23:31:38 15° S 23:32:10 14° SSE visible
28 Apr ? 23:44:23 10° SW 23:46:04 15° S 23:46:26 15° S visible
29 Apr ? 23:59:03 10° SW 00:00:29 13° SSW 00:00:35 13° S visible
01 May ? 00:14:10 10° SW 00:14:41 11° SSW 00:14:41 11° SSW visible
02 May ? 23:09:00 10° SW 23:10:11 12° SSW 23:11:23 10° S visible
